| time (UTC) | temp C | wind direction | speed KPH | gust KPH | rain 1hr cm | rain 24hr cm | rain mn cm | humidity % | barometer mb |
| 20260906082349 | 31 | 70 | 1.6 | 11.3 | 0.00 | 0.00 | 0.00 | 33 | 1022.4 |
| 20260906081352 | 31 | 59 | 1.6 | 11.3 | 0.00 | 0.00 | 0.00 | 33 | 1022.4 |
| 20260906080313 | 31 | 352 | 4.8 | 9.7 | 0.00 | 0.00 | 0.00 | 34 | 1022.8 |
| 20260906075336 | 31 | 2 | 6.4 | 8.0 | 0.00 | 0.00 | 0.00 | 33 | 1022.7 |
| 20260906074401 | 31 | 0 | 8.0 | 16.1 | 0.00 | 0.00 | 0.00 | 34 | 1022.7 |
| 20260906073312 | 32 | 0.0 | 4.8 | 0.00 | 0.00 | 0.00 | 33 | 1022.4 | |
| 20260906072128 | 30 | 7 | 1.6 | 9.7 | 0.00 | 0.00 | 0.00 | 36 | 1022.3 |
| 20260906071152 | 31 | 288 | 3.2 | 3.2 | 0.00 | 0.00 | 0.00 | 34 | 1022.3 |
| 20260906070113 | 31 | 198 | 1.6 | 3.2 | 0.00 | 0.00 | 0.00 | 34 | 1022.3 |
| 20260906064929 | 31 | 166 | 3.2 | 4.8 | 0.00 | 0.00 | 0.00 | 33 | 1021.9 |
| 20260906063952 | 29 | 223 | 1.6 | 3.2 | 0.00 | 0.00 | 0.00 | 35 | 1022.3 |
| 20260906062912 | 30 | 238 | 1.6 | 1.6 | 0.00 | 0.00 | 0.00 | 35 | 1021.7 |
| 20260906061729 | 30 | 253 | 1.6 | 4.8 | 0.00 | 0.00 | 0.00 | 36 | 1021.6 |
| 20260906060752 | 28 | 286 | 3.2 | 4.8 | 0.00 | 0.00 | 0.00 | 37 | 1021.8 |
| 20260906055713 | 28 | 0.0 | 1.6 | 0.00 | 0.00 | 0.00 | 38 | 1021.9 | |
| 20260906054529 | 28 | 243 | 4.8 | 4.8 | 0.00 | 0.00 | 0.00 | 37 | 1021.6 |
| 20260906053552 | 28 | 210 | 6.4 | 11.3 | 0.00 | 0.00 | 0.00 | 37 | 1021.6 |
| 20260906052513 | 27 | 190 | 3.2 | 12.9 | 0.00 | 0.00 | 0.00 | 38 | 1021.6 |
| 20260906051329 | 27 | 291 | 1.6 | 3.2 | 0.00 | 0.00 | 0.00 | 38 | 1022.0 |
| 20260906050353 | 26 | 318 | 1.6 | 1.6 | 0.00 | 0.00 | 0.00 | 41 | 1021.8 |
| 20260906045313 | 26 | 0.0 | 0.0 | 0.00 | 0.00 | 0.00 | 41 | 1022.0 | |
| 20260906044149 | 25 | 0.0 | 0.0 | 0.00 | 0.00 | 0.00 | 43 | 1021.8 | |
| 20260906043152 | 25 | 0.0 | 0.0 | 0.00 | 0.00 | 0.00 | 42 | 1022.0 | |
| 20260906042112 | 24 | 0.0 | 1.6 | 0.00 | 0.00 | 0.00 | 43 | 1021.8 | |
| 20260906040929 | 24 | 35 | 1.6 | 3.2 | 0.00 | 0.00 | 0.00 | 44 | 1022.0 |
| 20260906035953 | 24 | 33 | 1.6 | 1.6 | 0.00 | 0.00 | 0.00 | 44 | 1021.7 |
| 20260906034912 | 25 | 2 | 1.6 | 3.2 | 0.00 | 0.00 | 0.00 | 42 | 1021.5 |
| 20260906033749 | 25 | 34 | 1.6 | 3.2 | 0.00 | 0.00 | 0.00 | 41 | 1021.5 |
| 20260906032752 | 25 | 12 | 3.2 | 4.8 | 0.00 | 0.00 | 0.00 | 41 | 1021.5 |
| 20260906031713 | 25 | 26 | 1.6 | 1.6 | 0.00 | 0.00 | 0.00 | 40 | 1021.7 |
| 20260906030529 | 25 | 353 | 4.8 | 4.8 | 0.00 | 0.00 | 0.00 | 39 | 1021.4 |
| 20260906025613 | 25 | 5 | 4.8 | 8.0 | 0.00 | 0.00 | 0.00 | 39 | 1021.4 |
| 20260906024513 | 25 | 20 | 6.4 | 8.0 | 0.00 | 0.00 | 0.00 | 38 | 1021.0 |
| 20260906023328 | 25 | 51 | 1.6 | 3.2 | 0.00 | 0.00 | 0.00 | 39 | 1021.0 |
| 20260906022353 | 25 | 15 | 1.6 | 3.2 | 0.00 | 0.00 | 0.00 | 39 | 1021.1 |
| 20260906021312 | 25 | 337 | 1.6 | 3.2 | 0.00 | 0.00 | 0.00 | 38 | 1021.1 |
| 20260906020129 | 25 | 349 | 4.8 | 8.0 | 0.00 | 0.00 | 0.00 | 38 | 1021.1 |
| 20260906015153 | 25 | 344 | 3.2 | 4.8 | 0.00 | 0.00 | 0.00 | 39 | 1021.3 |
| 20260906014152 | 25 | 4 | 1.6 | 4.8 | 0.00 | 0.00 | 0.00 | 39 | 1021.1 |
| 20260906012928 | 25 | 41 | 4.8 | 4.8 | 0.00 | 0.00 | 0.00 | 40 | 1021.2 |
| 20260906011953 | 25 | 4 | 1.6 | 8.0 | 0.00 | 0.00 | 0.00 | 40 | 1021.4 |
| 20260906010913 | 25 | 347 | 3.2 | 8.0 | 0.00 | 0.00 | 0.00 | 40 | 1021.5 |
| 20260906005729 | 25 | 44 | 4.8 | 4.8 | 0.00 | 0.00 | 0.00 | 39 | 1021.2 |
| 20260906004753 | 25 | 13 | 1.6 | 3.2 | 0.00 | 0.00 | 0.00 | 39 | 1021.3 |
| 20260906003713 | 26 | 15 | 3.2 | 9.7 | 0.00 | 0.00 | 0.00 | 37 | 1021.3 |
| 20260906002529 | 26 | 22 | 6.4 | 12.9 | 0.00 | 0.00 | 0.00 | 36 | 1021.2 |
| 20260906001552 | 26 | 13 | 8.0 | 9.7 | 0.00 | 0.00 | 0.00 | 36 | 1021.4 |
| 20260906000552 | 26 | 7 | 4.8 | 8.0 | 0.00 | 0.00 | 0.00 | 37 | 1021.3 |
| 20260905235329 | 26 | 339 | 6.4 | 8.0 | 0.00 | 0.00 | 0.00 | 37 | 1021.4 |
| 20260905234352 | 25 | 10 | 3.2 | 4.8 | 0.00 | 0.00 | 0.00 | 38 | 1021.7 |
| 20260905233313 | 25 | 14 | 3.2 | 9.7 | 0.00 | 0.00 | 0.00 | 39 | 1021.7 |
| 20260905232128 | 25 | 2 | 6.4 | 8.0 | 0.00 | 0.00 | 0.00 | 40 | 1021.6 |
| 20260905231152 | 24 | 1 | 0.0 | 1.6 | 0.00 | 0.00 | 0.00 | 43 | 1021.9 |
| 20260905230112 | 25 | 0.0 | 1.6 | 0.00 | 0.00 | 0.00 | 41 | 1022.0 | |
| 20260905224949 | 25 | 5 | 3.2 | 4.8 | 0.00 | 0.00 | 0.00 | 40 | 1021.8 |
| 20260905223953 | 26 | 357 | 4.8 | 8.0 | 0.00 | 0.00 | 0.00 | 40 | 1021.9 |
| 20260905222913 | 26 | 9 | 4.8 | 8.0 | 0.00 | 0.00 | 0.00 | 39 | 1021.9 |
| 20260905221729 | 26 | 346 | 4.8 | 9.7 | 0.00 | 0.00 | 0.00 | 39 | 1022.2 |
| 20260905220753 | 26 | 355 | 3.2 | 9.7 | 0.00 | 0.00 | 0.00 | 38 | 1021.8 |
| 20260905215713 | 26 | 3 | 6.4 | 11.3 | 0.00 | 0.00 | 0.00 | 38 | 1021.8 |
| 20260905214529 | 25 | 5 | 4.8 | 8.0 | 0.00 | 0.00 | 0.00 | 39 | 1021.8 |
| 20260905213553 | 25 | 10 | 1.6 | 4.8 | 0.00 | 0.00 | 0.00 | 41 | 1022.1 |
| 20260905212512 | 25 | 0.0 | 0.0 | 0.00 | 0.00 | 0.00 | 41 | 1022.3 | |
| 20260905211349 | 25 | 0.0 | 0.0 | 0.00 | 0.00 | 0.00 | 41 | 1022.2 | |
| 20260905210353 | 25 | 331 | 0.0 | 1.6 | 0.00 | 0.00 | 0.00 | 41 | 1022.5 |
| 20260905205313 | 25 | 0.0 | 1.6 | 0.00 | 0.00 | 0.00 | 41 | 1022.1 | |
| 20260905204129 | 25 | 0.0 | 1.6 | 0.00 | 0.00 | 0.00 | 39 | 1021.9 | |
| 20260905203153 | 26 | 0.0 | 1.6 | 0.00 | 0.00 | 0.00 | 38 | 1021.8 | |
| 20260905202112 | 26 | 314 | 3.2 | 3.2 | 0.00 | 0.00 | 0.00 | 37 | 1022.1 |
| 20260905200949 | 26 | 7 | 6.4 | 9.7 | 0.00 | 0.00 | 0.00 | 36 | 1021.9 |
| 20260905195952 | 26 | 17 | 6.4 | 9.7 | 0.00 | 0.00 | 0.00 | 36 | 1021.6 |
| 20260905194913 | 26 | 6 | 6.4 | 11.3 | 0.00 | 0.00 | 0.00 | 37 | 1021.9 |
| 20260905193749 | 26 | 11 | 0.0 | 11.3 | 0.00 | 0.00 | 0.00 | 38 | 1021.9 |
| 20260905192752 | 25 | 32 | 1.6 | 3.2 | 0.00 | 0.00 | 0.00 | 41 | 1021.9 |
| 20260905191713 | 25 | 0.0 | 0.0 | 0.00 | 0.00 | 0.00 | 43 | 1021.9 | |
| 20260905190548 | 26 | 0.0 | 1.6 | 0.00 | 0.00 | 0.00 | 41 | 1022.0 | |
| 20260905185553 | 26 | 0.0 | 0.0 | 0.00 | 0.00 | 0.00 | 41 | 1022.1 | |
| 20260905184513 | 26 | 322 | 1.6 | 3.2 | 0.00 | 0.00 | 0.00 | 39 | 1021.9 |
| 20260905183329 | 26 | 10 | 1.6 | 4.8 | 0.00 | 0.00 | 0.00 | 39 | 1021.8 |
| 20260905182413 | 26 | 339 | 1.6 | 4.8 | 0.00 | 0.00 | 0.00 | 39 | 1021.7 |
| 20260905181353 | 26 | 0.0 | 1.6 | 0.00 | 0.00 | 0.00 | 40 | 1021.7 | |
| 20260905180129 | 26 | 27 | 1.6 | 3.2 | 0.00 | 0.00 | 0.00 | 39 | 1021.6 |
| 20260905175153 | 27 | 84 | 3.2 | 4.8 | 0.00 | 0.00 | 0.00 | 38 | 1021.4 |
| 20260905174132 | 27 | 356 | 3.2 | 9.7 | 0.00 | 0.00 | 0.00 | 38 | 1021.6 |
| 20260905172928 | 27 | 0.0 | 1.6 | 0.00 | 0.00 | 0.00 | 39 | 1021.4 | |
| 20260905172013 | 27 | 19 | 3.2 | 4.8 | 0.00 | 0.00 | 0.00 | 38 | 1021.2 |
| 20260905170913 | 27 | 346 | 4.8 | 9.7 | 0.00 | 0.00 | 0.00 | 38 | 1021.3 |
| 20260905165729 | 27 | 7 | 4.8 | 4.8 | 0.00 | 0.00 | 0.00 | 38 | 1020.9 |
| 20260905164753 | 28 | 22 | 1.6 | 4.8 | 0.00 | 0.00 | 0.00 | 38 | 1021.1 |
| 20260905163713 | 28 | 29 | 1.6 | 3.2 | 0.00 | 0.00 | 0.00 | 38 | 1020.9 |
| 20260905162529 | 29 | 314 | 4.8 | 11.3 | 0.00 | 0.00 | 0.00 | 38 | 1020.7 |
| 20260905161553 | 29 | 61 | 1.6 | 3.2 | 0.00 | 0.00 | 0.00 | 38 | 1020.8 |
| 20260905160513 | 29 | 40 | 3.2 | 8.0 | 0.00 | 0.00 | 0.00 | 37 | 1021.2 |
| 20260905155329 | 30 | 21 | 6.4 | 11.3 | 0.00 | 0.00 | 0.00 | 36 | 1020.9 |
| 20260905154413 | 30 | 348 | 4.8 | 8.0 | 0.00 | 0.00 | 0.00 | 37 | 1021.0 |
| 20260905153313 | 30 | 22 | 8.0 | 14.5 | 0.00 | 0.00 | 0.00 | 37 | 1021.1 |
| 20260905152129 | 30 | 355 | 8.0 | 14.5 | 0.00 | 0.00 | 0.00 | 37 | 1021.0 |
| 20260905151153 | 30 | 15 | 4.8 | 12.9 | 0.00 | 0.00 | 0.00 | 36 | 1020.9 |
| 20260905150113 | 30 | 334 | 12.9 | 14.5 | 0.00 | 0.00 | 0.00 | 37 | 1021.1 |
| 20260905144929 | 30 | 9 | 4.8 | 11.3 | 0.00 | 0.00 | 0.00 | 37 | 1020.8 |
| 20260905144033 | 31 | 334 | 9.7 | 12.9 | 0.00 | 0.00 | 0.00 | 36 | 1020.9 |
| 20260905142913 | 31 | 14 | 6.4 | 8.0 | 0.00 | 0.00 | 0.00 | 35 | 1020.7 |
| 20260905141729 | 31 | 14 | 6.4 | 8.0 | 0.00 | 0.00 | 0.00 | 35 | 1020.9 |
| 20260905140753 | 31 | 14 | 6.4 | 8.0 | 0.00 | 0.00 | 0.00 | 35 | 1021.2 |
| 20260905135713 | 30 | 56 | 6.4 | 9.7 | 0.00 | 0.00 | 0.00 | 36 | 1020.9 |
| 20260905134529 | 30 | 38 | 9.7 | 17.7 | 0.00 | 0.00 | 0.00 | 35 | 1021.1 |
| 20260905133613 | 31 | 358 | 12.9 | 14.5 | 0.00 | 0.00 | 0.00 | 36 | 1020.9 |
| 20260905132533 | 30 | 51 | 3.2 | 12.9 | 0.00 | 0.00 | 0.00 | 36 | 1021.1 |
| 20260905131329 | 30 | 66 | 1.6 | 14.5 | 0.00 | 0.00 | 0.00 | 36 | 1021.2 |
| 20260905130353 | 30 | 305 | 8.0 | 9.7 | 0.00 | 0.00 | 0.00 | 36 | 1021.1 |
| 20260905125313 | 30 | 337 | 8.0 | 9.7 | 0.00 | 0.00 | 0.00 | 36 | 1021.2 |
| 20260905124337 | 31 | 336 | 3.2 | 12.9 | 0.00 | 0.00 | 0.00 | 36 | 1021.3 |
| 20260905123401 | 30 | 341 | 8.0 | 12.9 | 0.00 | 0.00 | 0.00 | 37 | 1021.1 |
| 20260905122314 | 30 | 338 | 3.2 | 4.8 | 0.00 | 0.00 | 0.00 | 36 | 1021.3 |
| 20260905121130 | 30 | 302 | 6.4 | 16.1 | 0.00 | 0.00 | 0.00 | 37 | 1021.5 |
| 20260905120154 | 30 | 333 | 11.3 | 14.5 | 0.00 | 0.00 | 0.00 | 36 | 1021.7 |
| 20260905115114 | 30 | 333 | 11.3 | 14.5 | 0.00 | 0.00 | 0.00 | 36 | 1021.6 |
| 20260905113931 | 30 | 320 | 4.8 | 16.1 | 0.00 | 0.00 | 0.00 | 36 | 1021.5 |
| 20260905112953 | 30 | 6 | 12.9 | 16.1 | 0.00 | 0.00 | 0.00 | 36 | 1021.8 |
| 20260905111914 | 30 | 9 | 9.7 | 14.5 | 0.00 | 0.00 | 0.00 | 36 | 1021.7 |
| 20260905110730 | 30 | 19 | 12.9 | 20.9 | 0.00 | 0.00 | 0.00 | 37 | 1022.1 |
| 20260905105754 | 30 | 341 | 9.7 | 17.7 | 0.00 | 0.00 | 0.00 | 36 | 1021.6 |
| 20260905104714 | 30 | 359 | 8.0 | 17.7 | 0.00 | 0.00 | 0.00 | 36 | 1021.6 |
| 20260905103530 | 30 | 56 | 8.0 | 17.7 | 0.00 | 0.00 | 0.00 | 36 | 1021.7 |
| 20260905102554 | 30 | 350 | 11.3 | 14.5 | 0.00 | 0.00 | 0.00 | 36 | 1021.6 |
| 20260905101534 | 30 | 20 | 8.0 | 9.7 | 0.00 | 0.00 | 0.00 | 38 | 1022.2 |
| 20260905100329 | 29 | 90 | 6.4 | 9.7 | 0.00 | 0.00 | 0.00 | 40 | 1021.7 |
| 20260905095414 | 29 | 334 | 14.5 | 17.7 | 0.00 | 0.00 | 0.00 | 39 | 1021.8 |
| 20260905094334 | 29 | 274 | 8.0 | 11.3 | 0.00 | 0.00 | 0.00 | 39 | 1021.7 |
| 20260905093130 | 29 | 327 | 22.5 | 27.4 | 0.00 | 0.00 | 0.00 | 38 | 1021.6 |
| 20260905092154 | 29 | 318 | 20.9 | 29.0 | 0.00 | 0.00 | 0.00 | 38 | 1022.0 |
| 20260905091135 | 28 | 327 | 20.9 | 33.8 | 0.00 | 0.00 | 0.00 | 39 | 1021.5 |
| 20260905085930 | 28 | 349 | 12.9 | 24.1 | 0.00 | 0.00 | 0.00 | 39 | 1021.5 |
| 20260905084954 | 28 | 346 | 14.5 | 17.7 | 0.00 | 0.00 | 0.00 | 39 | 1021.5 |
| 20260905083914 | 28 | 79 | 4.8 | 9.7 | 0.00 | 0.00 | 0.00 | 39 | 1021.5 |